KJC417 UOOO-UUOB

Flight info

Callsign KJC417
Flight time 4h 36m
Altitude 34000
Route N0450F340 BI T791 RIMAG G498 SH T816 UHT T760 ROTLO T757 BULAT L4 ABALU
Aircraft T204/M-Q/L

Departure

Time 2026-04-23 06:55
Airport Alykel International Airport (UOOO)

Arrival

Time 2026-04-23 11:31
Airport Belgorod International Airport (UUOB)
Time Latitude Longitude Altitude Speed Heading
2026-04-23 06:31 69.32314 87.34111 591 ft 0 kts 348°
2026-04-23 06:43 69.32308 87.34114 591 ft 2 kts 348°
2026-04-23 06:43 69.32294 87.34122 591 ft 2 kts 348°
2026-04-23 06:44 69.32278 87.34131 591 ft 2 kts 348°
2026-04-23 06:44 69.32264 87.34139 591 ft 2 kts 348°
2026-04-23 06:44 69.32250 87.34148 591 ft 2 kts 347°
2026-04-23 06:44 69.32238 87.34170 591 ft 2 kts 305°
2026-04-23 06:45 69.32233 87.34208 591 ft 2 kts 271°
2026-04-23 06:45 69.32237 87.34247 591 ft 2 kts 237°
2026-04-23 06:45 69.32247 87.34273 591 ft 2 kts 207°
2026-04-23 06:45 69.32259 87.34292 591 ft 1 kts 213°
2026-04-23 06:46 69.32256 87.34286 591 ft 3 kts 208°
2026-04-23 06:46 69.32217 87.34220 591 ft 7 kts 211°
2026-04-23 06:46 69.32172 87.34141 591 ft 7 kts 211°
2026-04-23 06:46 69.32133 87.34071 591 ft 4 kts 211°
2026-04-23 06:47 69.32116 87.34043 591 ft 3 kts 202°
2026-04-23 06:47 69.32092 87.34047 591 ft 2 kts 156°
2026-04-23 06:47 69.32069 87.34096 591 ft 6 kts 135°
2026-04-23 06:47 69.32053 87.34154 591 ft 1 kts 122°
2026-04-23 06:48 69.32052 87.34156 591 ft 0 kts 122°
2026-04-23 06:52 69.32052 87.34157 591 ft 0 kts 122°
2026-04-23 06:53 69.32036 87.34225 591 ft 8 kts 123°
2026-04-23 06:53 69.32007 87.34350 591 ft 6 kts 123°
2026-04-23 06:53 69.31988 87.34430 591 ft 3 kts 124°
2026-04-23 06:53 69.31979 87.34471 591 ft 2 kts 123°
2026-04-23 06:54 69.31956 87.34569 591 ft 10 kts 126°
2026-04-23 06:54 69.31870 87.34554 591 ft 20 kts 206°
2026-04-23 06:54 69.31522 87.33957 591 ft 101 kts 213°
2026-04-23 06:54 69.30724 87.32451 647 ft 165 kts 205°
2026-04-23 06:55 69.29745 87.30581 1601 ft 175 kts 205°
2026-04-23 06:55 69.28847 87.28810 2947 ft 165 kts 207°
2026-04-23 06:55 69.27891 87.26945 3705 ft 168 kts 208°
2026-04-23 06:55 69.26878 87.25124 3994 ft 184 kts 205°
2026-04-23 06:56 69.25680 87.23261 4255 ft 210 kts 205°
2026-04-23 06:56 69.24387 87.21230 5074 ft 217 kts 206°
2026-04-23 06:56 69.23260 87.18505 5982 ft 225 kts 231°
2026-04-23 06:56 69.22671 87.14419 6849 ft 236 kts 256°
2026-04-23 06:57 69.22739 87.09808 7670 ft 246 kts 281°
2026-04-23 06:57 69.23441 87.05355 8497 ft 253 kts 296°
2026-04-23 06:57 69.24323 87.01105 9308 ft 256 kts 298°
2026-04-23 06:57 69.25245 86.96790 9998 ft 263 kts 298°
2026-04-23 06:58 69.26225 86.92206 10399 ft 283 kts 299°
2026-04-23 06:58 69.27263 86.87351 10790 ft 302 kts 299°
2026-04-23 06:58 69.28376 86.82149 11183 ft 320 kts 299°
2026-04-23 06:58 69.29546 86.76679 11634 ft 334 kts 300°
2026-04-23 06:59 69.30744 86.71062 12422 ft 336 kts 300°
2026-04-23 06:59 69.31948 86.65395 13162 ft 340 kts 300°
2026-04-23 06:59 69.33167 86.59642 13837 ft 345 kts 300°
2026-04-23 06:59 69.34408 86.53794 14494 ft 349 kts 300°
2026-04-23 07:00 69.35647 86.47950 15174 ft 353 kts 300°
2026-04-23 07:00 69.36912 86.41972 15889 ft 354 kts 300°
2026-04-23 07:00 69.38138 86.35952 16565 ft 356 kts 299°
2026-04-23 07:00 69.39357 86.29870 17204 ft 359 kts 298°
2026-04-23 07:01 69.40330 86.23361 17760 ft 361 kts 282°
2026-04-23 07:01 69.40561 86.16366 18419 ft 360 kts 267°
2026-04-23 07:01 69.40408 86.09273 19007 ft 361 kts 263°
2026-04-23 07:01 69.40086 86.02181 19536 ft 364 kts 260°
2026-04-23 07:02 69.39674 85.95081 20106 ft 366 kts 259°
2026-04-23 07:02 69.39221 85.88059 20636 ft 367 kts 258°
2026-04-23 07:02 69.38740 85.80939 21143 ft 370 kts 258°
2026-04-23 07:02 69.38240 85.73757 21625 ft 373 kts 258°
2026-04-23 07:03 69.37738 85.66573 22104 ft 375 kts 258°
2026-04-23 07:03 69.37236 85.59399 22539 ft 378 kts 258°
2026-04-23 07:03 69.36725 85.52068 22961 ft 382 kts 258°
2026-04-23 07:03 69.36214 85.44698 23435 ft 383 kts 258°
2026-04-23 07:04 69.35702 85.37303 23851 ft 386 kts 258°
2026-04-23 07:04 69.35187 85.29819 24259 ft 388 kts 257°
2026-04-23 07:04 69.34679 85.22385 24652 ft 391 kts 258°
2026-04-23 07:04 69.34158 85.14742 25057 ft 393 kts 258°
2026-04-23 07:05 69.33649 85.07186 25474 ft 395 kts 258°
2026-04-23 07:05 69.33135 84.99503 25875 ft 397 kts 258°
2026-04-23 07:05 69.32629 84.91909 26243 ft 399 kts 258°
2026-04-23 07:05 69.32118 84.84222 26665 ft 401 kts 258°
2026-04-23 07:06 69.31609 84.76485 27195 ft 399 kts 259°
2026-04-23 07:06 69.31104 84.68804 27682 ft 398 kts 258°
2026-04-23 07:06 69.30606 84.61149 28166 ft 397 kts 259°
2026-04-23 07:06 69.30114 84.53585 28606 ft 397 kts 259°
2026-04-23 07:07 69.29621 84.45931 29053 ft 396 kts 259°
2026-04-23 07:07 69.29134 84.38313 29489 ft 396 kts 259°
2026-04-23 07:07 69.28648 84.30647 29918 ft 396 kts 258°
2026-04-23 07:07 69.28165 84.23002 30343 ft 395 kts 259°
2026-04-23 07:08 69.27691 84.15433 30727 ft 395 kts 259°
2026-04-23 07:08 69.27291 84.07752 31105 ft 394 kts 263°
2026-04-23 07:08 69.26999 84.00085 31311 ft 399 kts 263°
2026-04-23 07:08 69.26704 83.92244 31490 ft 403 kts 263°
2026-04-23 07:09 69.26406 83.84380 31653 ft 407 kts 263°
2026-04-23 07:09 69.26105 83.76534 31808 ft 410 kts 263°
2026-04-23 07:09 69.25796 83.68531 31950 ft 413 kts 263°
2026-04-23 07:09 69.25480 83.60458 32095 ft 416 kts 263°
2026-04-23 07:10 69.25159 83.52330 32241 ft 418 kts 263°
2026-04-23 07:10 69.24834 83.44279 32379 ft 421 kts 263°
2026-04-23 07:10 69.24503 83.36098 32519 ft 422 kts 263°
2026-04-23 07:10 69.24160 83.27809 32658 ft 424 kts 262°
2026-04-23 07:11 69.23463 83.11200 32705 ft 436 kts 262°
2026-04-23 07:12 69.22345 82.85330 32734 ft 452 kts 262°
2026-04-23 07:12 69.21564 82.67781 32969 ft 454 kts 262°
2026-04-23 07:12 69.21170 82.59096 33091 ft 454 kts 262°
2026-04-23 07:13 69.20769 82.50333 33220 ft 453 kts 262°
2026-04-23 07:13 69.19956 82.32832 33426 ft 454 kts 261°
2026-04-23 07:14 69.19127 82.15437 33609 ft 454 kts 261°
2026-04-23 07:14 69.18273 81.97897 33781 ft 454 kts 261°
2026-04-23 07:15 69.17403 81.80445 33919 ft 455 kts 261°
2026-04-23 07:15 69.16509 81.62882 34101 ft 455 kts 261°
2026-04-23 07:15 69.16062 81.54202 34225 ft 455 kts 261°
2026-04-23 07:16 69.15602 81.45436 34332 ft 455 kts 261°
2026-04-23 07:16 69.15143 81.36686 34436 ft 454 kts 261°
2026-04-23 07:16 69.14677 81.27939 34559 ft 454 kts 260°
2026-04-23 07:17 69.13741 81.10595 34902 ft 449 kts 260°
2026-04-23 07:17 69.13264 81.01916 35097 ft 446 kts 260°
2026-04-23 07:17 69.12789 80.93332 35194 ft 446 kts 260°
2026-04-23 07:18 69.11837 80.76314 35397 ft 445 kts 260°
2026-04-23 07:18 69.11351 80.67751 35508 ft 444 kts 260°
2026-04-23 07:18 69.10864 80.59289 35587 ft 445 kts 260°
2026-04-23 07:19 69.09879 80.42326 35749 ft 445 kts 260°
2026-04-23 07:19 69.08863 80.25208 35890 ft 449 kts 259°
2026-04-23 07:20 69.07834 80.08071 35876 ft 445 kts 259°
2026-04-23 07:20 69.06797 79.91084 35866 ft 444 kts 259°
2026-04-23 07:21 69.05742 79.74181 35859 ft 444 kts 258°
2026-04-23 07:21 69.04463 79.57410 35855 ft 445 kts 257°
2026-04-23 07:22 69.03142 79.40557 35842 ft 445 kts 257°
2026-04-23 07:22 69.01841 79.23782 35832 ft 445 kts 257°
2026-04-23 07:23 69.00554 79.06911 35826 ft 445 kts 257°
2026-04-23 07:23 68.99161 78.90215 35825 ft 444 kts 254°
2026-04-23 07:24 68.97462 78.73833 35822 ft 445 kts 252°
2026-04-23 07:24 68.95860 78.57276 35802 ft 445 kts 256°
2026-04-23 07:25 68.94466 78.40485 35791 ft 446 kts 257°
2026-04-23 07:25 68.93070 78.23846 35807 ft 446 kts 256°
2026-04-23 07:26 68.91667 78.07338 35793 ft 446 kts 256°
2026-04-23 07:26 68.90228 77.90617 35778 ft 446 kts 256°
2026-04-23 07:27 68.88774 77.73903 35789 ft 447 kts 256°
2026-04-23 07:27 68.87337 77.57571 35785 ft 447 kts 256°
2026-04-23 07:28 68.85823 77.40563 35781 ft 447 kts 256°
2026-04-23 07:28 68.84323 77.23934 35780 ft 447 kts 255°
2026-04-23 07:29 68.82837 77.07693 35785 ft 447 kts 255°
2026-04-23 07:29 68.81314 76.91268 35780 ft 446 kts 255°
2026-04-23 07:30 68.79759 76.74646 35765 ft 447 kts 255°
2026-04-23 07:30 68.78197 76.58134 35761 ft 448 kts 255°
2026-04-23 07:31 68.76617 76.41638 35756 ft 448 kts 255°
2026-04-23 07:31 68.75011 76.25053 35732 ft 448 kts 254°
2026-04-23 07:32 68.73397 76.08587 35724 ft 448 kts 254°
2026-04-23 07:32 68.71770 75.92149 35721 ft 447 kts 253°
2026-04-23 07:33 68.70126 75.75755 35720 ft 447 kts 254°
2026-04-23 07:33 68.68452 75.59283 35720 ft 448 kts 254°
2026-04-23 07:34 68.66773 75.42899 35722 ft 448 kts 254°
2026-04-23 07:34 68.65077 75.26540 35712 ft 448 kts 253°
2026-04-23 07:35 68.63372 75.10255 35704 ft 448 kts 253°
2026-04-23 07:35 68.61643 74.93895 35696 ft 448 kts 253°
2026-04-23 07:36 68.59897 74.77567 35682 ft 448 kts 253°
2026-04-23 07:36 68.58137 74.61281 35693 ft 448 kts 253°
2026-04-23 07:37 68.56364 74.45075 35679 ft 448 kts 253°
2026-04-23 07:37 68.54575 74.28883 35690 ft 448 kts 252°
2026-04-23 07:38 68.52771 74.12677 35681 ft 448 kts 252°
2026-04-23 07:38 68.50942 73.96417 35686 ft 448 kts 252°
2026-04-23 07:39 68.49111 73.80301 35663 ft 449 kts 252°
2026-04-23 07:39 68.47258 73.64195 35659 ft 449 kts 251°
2026-04-23 07:39 68.45945 73.56491 35622 ft 447 kts 239°
2026-04-23 07:40 68.44323 73.49328 35692 ft 447 kts 237°
2026-04-23 07:40 68.40872 73.35472 35650 ft 447 kts 235°
2026-04-23 07:41 68.37368 73.21862 35645 ft 447 kts 234°
2026-04-23 07:41 68.33829 73.08172 35640 ft 447 kts 234°
2026-04-23 07:42 68.30267 72.94386 35632 ft 447 kts 234°
2026-04-23 07:42 68.26739 72.80679 35622 ft 447 kts 234°
2026-04-23 07:43 68.23238 72.67046 35613 ft 447 kts 235°
2026-04-23 07:43 68.19719 72.53293 35613 ft 447 kts 235°
2026-04-23 07:44 68.16215 72.39556 35606 ft 447 kts 235°
2026-04-23 07:44 68.12742 72.25888 35588 ft 447 kts 235°
2026-04-23 07:45 68.09376 72.11909 35592 ft 448 kts 237°
2026-04-23 07:45 68.06052 71.97866 35587 ft 448 kts 237°
2026-04-23 07:46 68.02727 71.83913 35596 ft 448 kts 237°
2026-04-23 07:46 67.99391 71.70007 35592 ft 448 kts 237°
2026-04-23 07:47 67.96033 71.56091 35593 ft 448 kts 237°
2026-04-23 07:47 67.92679 71.42284 35592 ft 448 kts 237°
2026-04-23 07:48 67.89307 71.28484 35578 ft 447 kts 236°
2026-04-23 07:48 67.85918 71.14675 35577 ft 447 kts 236°
2026-04-23 07:49 67.82578 71.01169 35571 ft 447 kts 236°
2026-04-23 07:49 67.79134 70.87334 35567 ft 447 kts 236°
2026-04-23 07:50 67.75727 70.73734 35564 ft 447 kts 236°
2026-04-23 07:50 67.72309 70.60181 35562 ft 447 kts 236°
2026-04-23 07:51 67.68888 70.46680 35561 ft 447 kts 236°
2026-04-23 07:51 67.65451 70.33177 35568 ft 447 kts 235°
2026-04-23 07:52 67.61987 70.19662 35557 ft 446 kts 235°
2026-04-23 07:52 67.58524 70.06222 35558 ft 445 kts 235°
2026-04-23 07:53 67.55003 69.93008 35553 ft 446 kts 233°
2026-04-23 07:53 67.51337 69.80123 35544 ft 446 kts 232°
2026-04-23 07:54 67.47631 69.67290 35549 ft 445 kts 233°
2026-04-23 07:54 67.43901 69.54415 35551 ft 445 kts 233°
2026-04-23 07:55 67.40199 69.41612 35555 ft 446 kts 233°
2026-04-23 07:55 67.36514 69.28840 35553 ft 445 kts 232°
2026-04-23 07:56 67.32816 69.15981 35542 ft 445 kts 233°
2026-04-23 07:56 67.29135 69.03148 35539 ft 445 kts 233°
2026-04-23 07:57 67.25494 68.90414 35538 ft 445 kts 233°
2026-04-23 07:57 67.21828 68.77563 35539 ft 445 kts 233°
2026-04-23 07:58 67.18198 68.64801 35539 ft 445 kts 234°
2026-04-23 07:58 67.14562 68.51978 35543 ft 446 kts 234°
2026-04-23 07:59 67.10912 68.39083 35542 ft 446 kts 234°
2026-04-23 07:59 67.07302 68.26299 35550 ft 445 kts 234°
2026-04-23 08:00 67.03742 68.13628 35540 ft 446 kts 234°
2026-04-23 08:00 67.00144 68.00787 35533 ft 447 kts 234°
2026-04-23 08:01 66.96553 67.87939 35534 ft 446 kts 234°
2026-04-23 08:01 66.92977 67.75106 35528 ft 446 kts 234°
2026-04-23 08:02 66.89408 67.62278 35527 ft 447 kts 235°
2026-04-23 08:02 66.85825 67.49375 35532 ft 447 kts 234°
2026-04-23 08:03 66.82046 67.36877 35528 ft 447 kts 233°
2026-04-23 08:03 66.78233 67.24480 35531 ft 447 kts 232°
2026-04-23 08:04 66.74446 67.12119 35532 ft 446 kts 232°
2026-04-23 08:04 66.70659 66.99725 35531 ft 446 kts 232°
2026-04-23 08:05 66.66891 66.87374 35527 ft 447 kts 232°
2026-04-23 08:05 66.63138 66.75052 35522 ft 446 kts 233°
2026-04-23 08:06 66.59405 66.62655 35520 ft 446 kts 237°
2026-04-23 08:06 66.56671 66.48790 35542 ft 444 kts 246°
2026-04-23 08:07 66.54153 66.34743 35526 ft 444 kts 245°
2026-04-23 08:07 66.51666 66.20963 35527 ft 444 kts 245°
2026-04-23 08:08 66.49129 66.06918 35525 ft 444 kts 246°
2026-04-23 08:08 66.47023 65.95213 35528 ft 444 kts 246°
2026-04-23 08:09 66.45184 65.84950 35524 ft 444 kts 246°
2026-04-23 08:09 66.42675 65.70892 35525 ft 444 kts 246°
2026-04-23 08:10 66.40205 65.56979 35524 ft 443 kts 246°
2026-04-23 08:10 66.36282 65.36182 35526 ft 443 kts 245°
2026-04-23 08:11 66.33628 65.22463 35518 ft 443 kts 244°
2026-04-23 08:11 66.30962 65.08666 35511 ft 443 kts 245°
2026-04-23 08:12 66.28303 64.94856 35506 ft 442 kts 245°
2026-04-23 08:12 66.25675 64.81143 35502 ft 442 kts 245°
2026-04-23 08:13 66.23071 64.67493 35502 ft 442 kts 245°
2026-04-23 08:13 66.20458 64.53732 35498 ft 442 kts 245°
2026-04-23 08:14 66.17873 64.40062 35496 ft 442 kts 246°
2026-04-23 08:14 66.15282 64.26296 35498 ft 441 kts 245°
2026-04-23 08:15 66.12747 64.12771 35500 ft 442 kts 245°
2026-04-23 08:15 66.10184 63.99030 35507 ft 442 kts 246°
2026-04-23 08:16 66.07586 63.85353 35514 ft 443 kts 244°
2026-04-23 08:16 66.04792 63.71899 35518 ft 442 kts 243°
2026-04-23 08:17 66.01985 63.58569 35503 ft 442 kts 243°
2026-04-23 08:17 65.99175 63.45234 35494 ft 442 kts 244°
2026-04-23 08:18 65.96365 63.31855 35475 ft 442 kts 243°
2026-04-23 08:18 65.93628 63.18776 35460 ft 442 kts 243°
2026-04-23 08:19 65.90848 63.05459 35470 ft 441 kts 243°
2026-04-23 08:19 65.88071 62.92083 35464 ft 442 kts 244°
2026-04-23 08:20 65.85301 62.78680 35427 ft 441 kts 244°
2026-04-23 08:20 65.82616 62.65628 35400 ft 441 kts 244°
2026-04-23 08:21 65.79873 62.52239 35413 ft 440 kts 244°
2026-04-23 08:21 65.77173 62.39003 35415 ft 440 kts 245°
2026-04-23 08:22 65.74473 62.25724 35394 ft 441 kts 244°
2026-04-23 08:22 65.71753 62.12294 35394 ft 441 kts 244°
2026-04-23 08:23 65.68973 61.99184 35390 ft 441 kts 242°
2026-04-23 08:23 65.65945 61.86263 35409 ft 441 kts 240°
2026-04-23 08:24 65.62879 61.73523 35422 ft 441 kts 240°
2026-04-23 08:24 65.59795 61.60754 35410 ft 441 kts 241°
2026-04-23 08:25 65.56735 61.48051 35384 ft 440 kts 241°
2026-04-23 08:25 65.53683 61.35360 35388 ft 439 kts 241°
2026-04-23 08:26 65.50647 61.22685 35414 ft 440 kts 240°
2026-04-23 08:26 65.47607 61.09945 35423 ft 440 kts 241°
2026-04-23 08:27 65.44758 60.96995 35427 ft 440 kts 243°
2026-04-23 08:27 65.41936 60.83999 35422 ft 440 kts 243°
2026-04-23 08:28 65.39108 60.71034 35403 ft 439 kts 243°
2026-04-23 08:28 65.36287 60.58184 35401 ft 438 kts 243°
2026-04-23 08:29 65.33466 60.45411 35403 ft 438 kts 243°
2026-04-23 08:29 65.30597 60.32510 35379 ft 439 kts 242°
2026-04-23 08:30 65.27841 60.20193 35353 ft 439 kts 242°
2026-04-23 08:30 65.24973 60.07435 35366 ft 439 kts 242°
2026-04-23 08:31 65.22098 59.94710 35383 ft 438 kts 242°
2026-04-23 08:31 65.19210 59.82002 35384 ft 438 kts 242°
2026-04-23 08:32 65.16316 59.69349 35393 ft 437 kts 242°
2026-04-23 08:32 65.13408 59.56712 35399 ft 438 kts 242°
2026-04-23 08:33 65.10500 59.44147 35389 ft 438 kts 242°
2026-04-23 08:33 65.07553 59.31478 35376 ft 438 kts 241°
2026-04-23 08:34 65.04761 59.19544 35366 ft 437 kts 241°
2026-04-23 08:34 65.01858 59.07193 35389 ft 437 kts 241°
2026-04-23 08:35 64.98910 58.94733 35409 ft 438 kts 241°
2026-04-23 08:35 64.95925 58.82198 35427 ft 438 kts 241°
2026-04-23 08:36 64.92946 58.69749 35437 ft 438 kts 241°
2026-04-23 08:36 64.89963 58.57349 35443 ft 437 kts 241°
2026-04-23 08:37 64.87094 58.45476 35455 ft 437 kts 241°
2026-04-23 08:37 64.84219 58.33686 35468 ft 437 kts 239°
2026-04-23 08:38 64.81139 58.21627 35468 ft 437 kts 239°
2026-04-23 08:38 64.78030 58.09518 35459 ft 438 kts 239°
2026-04-23 08:39 64.74910 57.97344 35462 ft 437 kts 239°
2026-04-23 08:39 64.71798 57.85166 35464 ft 437 kts 239°
2026-04-23 08:40 64.68706 57.73064 35465 ft 437 kts 239°
2026-04-23 08:40 64.65491 57.61093 35456 ft 436 kts 238°
2026-04-23 08:41 64.62242 57.49177 35453 ft 437 kts 238°
2026-04-23 08:41 64.59017 57.37357 35449 ft 437 kts 238°
2026-04-23 08:42 64.55865 57.25778 35442 ft 438 kts 237°
2026-04-23 08:42 64.52598 57.13744 35436 ft 437 kts 237°
2026-04-23 08:43 64.49380 57.01859 35438 ft 437 kts 238°
2026-04-23 08:43 64.46172 56.89967 35444 ft 436 kts 238°
2026-04-23 08:44 64.42975 56.78085 35444 ft 436 kts 238°
2026-04-23 08:44 64.39792 56.66226 35454 ft 436 kts 238°
2026-04-23 08:45 64.36626 56.54389 35452 ft 437 kts 238°
2026-04-23 08:45 64.33373 56.42634 35454 ft 437 kts 237°
2026-04-23 08:46 64.30034 56.30944 35451 ft 437 kts 236°
2026-04-23 08:46 64.26671 56.19227 35448 ft 437 kts 236°
2026-04-23 08:47 64.23350 56.07644 35449 ft 437 kts 236°
2026-04-23 08:47 64.20043 55.96086 35447 ft 436 kts 237°
2026-04-23 08:48 64.16719 55.84438 35441 ft 436 kts 237°
2026-04-23 08:48 64.13429 55.72877 35430 ft 437 kts 237°
2026-04-23 08:49 64.10131 55.61258 35428 ft 437 kts 237°
2026-04-23 08:49 64.06838 55.49627 35428 ft 438 kts 237°
2026-04-23 08:50 64.03567 55.38031 35437 ft 438 kts 238°
2026-04-23 08:50 64.00309 55.26449 35447 ft 438 kts 237°
2026-04-23 08:51 63.97013 55.14695 35443 ft 438 kts 237°
2026-04-23 08:51 63.93631 55.03263 35433 ft 438 kts 235°
2026-04-23 08:52 63.90179 54.91970 35429 ft 438 kts 235°
2026-04-23 08:52 63.86827 54.81030 35432 ft 438 kts 235°
2026-04-23 08:53 63.83371 54.69731 35431 ft 438 kts 236°
2026-04-23 08:53 63.79932 54.58458 35431 ft 439 kts 236°
2026-04-23 08:54 63.76498 54.47174 35428 ft 437 kts 236°
2026-04-23 08:54 63.73058 54.35840 35429 ft 436 kts 236°
2026-04-23 08:55 63.69726 54.24838 35425 ft 437 kts 235°
2026-04-23 08:55 63.66375 54.13742 35425 ft 437 kts 236°
2026-04-23 08:56 63.62998 54.02536 35427 ft 437 kts 236°
2026-04-23 08:56 63.59591 53.91201 35439 ft 437 kts 236°
2026-04-23 08:57 63.56219 53.79970 35446 ft 438 kts 235°
2026-04-23 08:57 63.52261 53.69599 35451 ft 439 kts 228°
2026-04-23 08:58 63.48181 53.59543 35432 ft 438 kts 228°
2026-04-23 08:58 63.44134 53.49549 35430 ft 436 kts 229°
2026-04-23 08:59 63.40074 53.39497 35418 ft 436 kts 229°
2026-04-23 08:59 63.36034 53.29469 35417 ft 437 kts 228°
2026-04-23 09:00 63.32028 53.19511 35413 ft 438 kts 228°
2026-04-23 09:00 63.27998 53.09470 35412 ft 438 kts 229°
2026-04-23 09:01 63.23970 52.99422 35413 ft 439 kts 229°
2026-04-23 09:01 63.19930 52.89326 35410 ft 440 kts 229°
2026-04-23 09:02 63.15890 52.79210 35416 ft 438 kts 229°
2026-04-23 09:02 63.11898 52.69192 35424 ft 437 kts 229°
2026-04-23 09:03 63.07893 52.59152 35429 ft 437 kts 229°
2026-04-23 09:03 63.03803 52.49424 35422 ft 436 kts 227°
2026-04-23 09:04 62.99661 52.39778 35426 ft 436 kts 227°
2026-04-23 09:04 62.95503 52.30132 35423 ft 436 kts 226°
2026-04-23 09:05 62.91356 52.20503 35426 ft 435 kts 227°
2026-04-23 09:05 62.87194 52.10832 35427 ft 436 kts 227°
2026-04-23 09:06 62.83051 52.01188 35422 ft 436 kts 227°
2026-04-23 09:06 62.78916 51.91548 35422 ft 435 kts 227°
2026-04-23 09:07 62.74821 51.81986 35420 ft 436 kts 227°
2026-04-23 09:07 62.70689 51.72321 35413 ft 437 kts 227°
2026-04-23 09:08 62.66572 51.62678 35412 ft 436 kts 227°
2026-04-23 09:08 62.62465 51.53043 35408 ft 436 kts 228°
2026-04-23 09:09 62.58387 51.43463 35412 ft 435 kts 228°
2026-04-23 09:09 62.54307 51.33862 35409 ft 436 kts 227°
2026-04-23 09:10 62.48166 51.19373 35410 ft 437 kts 227°
2026-04-23 09:11 62.44064 51.09676 35408 ft 437 kts 227°
2026-04-23 09:11 62.39997 51.00048 35415 ft 437 kts 228°
2026-04-23 09:12 62.35931 50.90411 35418 ft 436 kts 227°
2026-04-23 09:12 62.31775 50.81083 35422 ft 436 kts 226°
2026-04-23 09:13 62.27581 50.71761 35413 ft 435 kts 226°
2026-04-23 09:13 62.23385 50.62403 35402 ft 436 kts 226°
2026-04-23 09:14 62.19205 50.53065 35398 ft 435 kts 226°
2026-04-23 09:14 62.15011 50.43874 35392 ft 436 kts 226°
2026-04-23 09:15 62.10773 50.34676 35392 ft 436 kts 225°
2026-04-23 09:15 62.06522 50.25463 35401 ft 435 kts 225°
2026-04-23 09:16 62.02311 50.16331 35402 ft 435 kts 225°
2026-04-23 09:16 61.98093 50.07178 35405 ft 434 kts 226°
2026-04-23 09:17 61.93877 49.98016 35408 ft 434 kts 226°
2026-04-23 09:17 61.89682 49.88879 35405 ft 435 kts 226°
2026-04-23 09:18 61.85537 49.79835 35403 ft 436 kts 226°
2026-04-23 09:18 61.81398 49.70519 35396 ft 435 kts 230°
2026-04-23 09:19 61.77532 49.60849 35388 ft 435 kts 230°
2026-04-23 09:19 61.73614 49.51124 35387 ft 434 kts 230°
2026-04-23 09:20 61.69718 49.41494 35388 ft 434 kts 230°
2026-04-23 09:20 61.65832 49.31897 35385 ft 433 kts 229°
2026-04-23 09:21 61.61847 49.22407 35389 ft 433 kts 228°
2026-04-23 09:21 61.57857 49.13041 35401 ft 434 kts 228°
2026-04-23 09:22 61.53838 49.03625 35402 ft 434 kts 228°
2026-04-23 09:22 61.49849 48.94268 35400 ft 434 kts 228°
2026-04-23 09:23 61.45852 48.84878 35409 ft 434 kts 228°
2026-04-23 09:23 61.41877 48.75534 35392 ft 433 kts 229°
2026-04-23 09:24 61.37887 48.66136 35395 ft 434 kts 229°
2026-04-23 09:24 61.33913 48.56762 35377 ft 434 kts 229°
2026-04-23 09:25 61.29929 48.47347 35378 ft 434 kts 229°
2026-04-23 09:25 61.25980 48.37999 35377 ft 434 kts 229°
2026-04-23 09:26 61.22003 48.28570 35379 ft 435 kts 228°
2026-04-23 09:26 61.18007 48.19176 35377 ft 434 kts 227°
2026-04-23 09:27 61.13989 48.09948 35385 ft 434 kts 227°
2026-04-23 09:27 61.09932 48.00782 35379 ft 434 kts 227°
2026-04-23 09:28 61.05866 47.91718 35382 ft 434 kts 227°
2026-04-23 09:28 61.01781 47.82627 35382 ft 434 kts 227°
2026-04-23 09:29 60.97679 47.73493 35361 ft 434 kts 227°
2026-04-23 09:29 60.93604 47.64403 35374 ft 435 kts 227°
2026-04-23 09:30 60.89537 47.55317 35373 ft 435 kts 227°
2026-04-23 09:30 60.85455 47.46190 35375 ft 435 kts 227°
2026-04-23 09:31 60.81451 47.37225 35371 ft 435 kts 228°
2026-04-23 09:31 60.77357 47.28094 35380 ft 435 kts 226°
2026-04-23 09:32 60.73204 47.19167 35362 ft 435 kts 226°
2026-04-23 09:32 60.69028 47.10291 35374 ft 435 kts 226°
2026-04-23 09:33 60.64842 47.01421 35384 ft 435 kts 226°
2026-04-23 09:33 60.60678 46.92594 35370 ft 435 kts 226°
2026-04-23 09:34 60.56517 46.83764 35363 ft 436 kts 226°
2026-04-23 09:34 60.52346 46.74903 35361 ft 435 kts 226°
2026-04-23 09:35 60.48183 46.66044 35357 ft 436 kts 226°
2026-04-23 09:35 60.44018 46.57165 35371 ft 436 kts 226°
2026-04-23 09:36 60.39866 46.48301 35363 ft 436 kts 227°
2026-04-23 09:36 60.35722 46.39443 35358 ft 436 kts 227°
2026-04-23 09:37 60.31567 46.30548 35359 ft 436 kts 226°
2026-04-23 09:37 60.27494 46.21817 35361 ft 436 kts 226°
2026-04-23 09:38 60.23354 46.12929 35348 ft 437 kts 226°
2026-04-23 09:38 60.19215 46.04036 35348 ft 437 kts 226°
2026-04-23 09:39 60.15105 45.95188 35338 ft 437 kts 227°
2026-04-23 09:39 60.10928 45.86352 35341 ft 437 kts 226°
2026-04-23 09:40 60.06685 45.77681 35343 ft 437 kts 225°
2026-04-23 09:40 60.02441 45.69065 35346 ft 437 kts 225°
2026-04-23 09:41 59.98212 45.60481 35347 ft 437 kts 225°
2026-04-23 09:41 59.93968 45.51860 35350 ft 437 kts 226°
2026-04-23 09:42 59.89733 45.43245 35351 ft 437 kts 226°
2026-04-23 09:42 59.85553 45.34730 35344 ft 438 kts 225°
2026-04-23 09:43 59.81276 45.26007 35346 ft 438 kts 225°
2026-04-23 09:43 59.77049 45.17376 35339 ft 438 kts 225°
2026-04-23 09:44 59.72825 45.08738 35326 ft 437 kts 226°
2026-04-23 09:44 59.68621 45.00122 35330 ft 438 kts 226°
2026-04-23 09:45 59.64420 44.91503 35328 ft 438 kts 226°
2026-04-23 09:45 59.60212 44.82869 35330 ft 439 kts 226°
2026-04-23 09:46 59.56001 44.74213 35336 ft 439 kts 226°
2026-04-23 09:46 59.51722 44.65737 35338 ft 439 kts 225°
2026-04-23 09:47 59.47400 44.57279 35347 ft 439 kts 225°
2026-04-23 09:47 59.43097 44.48855 35326 ft 438 kts 225°
2026-04-23 09:48 59.38809 44.40450 35334 ft 439 kts 225°
2026-04-23 09:48 59.34530 44.32053 35329 ft 438 kts 225°
2026-04-23 09:49 59.30213 44.23575 35324 ft 438 kts 225°
2026-04-23 09:49 59.25952 44.15178 35314 ft 439 kts 226°
2026-04-23 09:50 59.21970 44.06227 35321 ft 439 kts 229°
2026-04-23 09:50 59.17993 43.97273 35315 ft 439 kts 229°
2026-04-23 09:51 59.13978 43.88320 35311 ft 439 kts 229°
2026-04-23 09:51 59.09979 43.79417 35314 ft 440 kts 229°
2026-04-23 09:52 59.05963 43.70476 35313 ft 440 kts 229°
2026-04-23 09:52 59.01975 43.61591 35302 ft 439 kts 229°
2026-04-23 09:53 58.97985 43.52689 35300 ft 439 kts 229°
2026-04-23 09:53 58.93991 43.43767 35300 ft 440 kts 230°
2026-04-23 09:54 58.90011 43.34856 35295 ft 440 kts 229°
2026-04-23 09:54 58.86023 43.25909 35297 ft 440 kts 229°
2026-04-23 09:55 58.82042 43.16970 35295 ft 440 kts 229°
2026-04-23 09:55 58.78073 43.07992 35290 ft 440 kts 232°
2026-04-23 09:56 58.74744 42.98172 35310 ft 440 kts 237°
2026-04-23 09:56 58.71482 42.88295 35291 ft 439 kts 237°
2026-04-23 09:57 58.68196 42.78448 35288 ft 440 kts 237°
2026-04-23 09:57 58.64881 42.68536 35291 ft 441 kts 237°
2026-04-23 09:58 58.61587 42.58673 35295 ft 442 kts 237°
2026-04-23 09:58 58.58295 42.48803 35295 ft 441 kts 238°
2026-04-23 09:59 58.55022 42.38963 35296 ft 441 kts 238°
2026-04-23 09:59 58.51731 42.29047 35300 ft 441 kts 237°
2026-04-23 10:00 58.48455 42.19152 35296 ft 441 kts 237°
2026-04-23 10:00 58.45085 42.09430 35268 ft 442 kts 229°
2026-04-23 10:01 58.40742 42.01183 35316 ft 443 kts 224°
2026-04-23 10:01 58.36290 41.93177 35305 ft 443 kts 223°
2026-04-23 10:02 58.31808 41.85134 35297 ft 443 kts 224°
2026-04-23 10:02 58.27341 41.77111 35299 ft 443 kts 224°
2026-04-23 10:03 58.22891 41.69107 35296 ft 443 kts 224°
2026-04-23 10:03 58.18451 41.61106 35295 ft 443 kts 224°
2026-04-23 10:04 58.13995 41.53068 35292 ft 444 kts 224°
2026-04-23 10:04 58.09569 41.45085 35301 ft 445 kts 224°
2026-04-23 10:05 58.05093 41.37000 35300 ft 445 kts 224°
2026-04-23 10:05 58.00667 41.28994 35303 ft 444 kts 224°
2026-04-23 10:06 57.96262 41.21052 35294 ft 445 kts 223°
2026-04-23 10:06 57.91739 41.13147 35301 ft 445 kts 223°
2026-04-23 10:07 57.87229 41.05298 35306 ft 444 kts 223°
2026-04-23 10:07 57.82869 40.97704 35311 ft 445 kts 223°
2026-04-23 10:08 57.78415 40.89951 35296 ft 445 kts 223°
2026-04-23 10:08 57.73867 40.82037 35305 ft 446 kts 223°
2026-04-23 10:09 57.67123 40.70263 35305 ft 446 kts 224°
2026-04-23 10:09 57.62588 40.62336 35314 ft 446 kts 224°
2026-04-23 10:10 57.58051 40.54547 35318 ft 447 kts 223°
2026-04-23 10:10 57.53495 40.46802 35317 ft 446 kts 223°
2026-04-23 10:11 57.48929 40.39045 35320 ft 447 kts 223°
2026-04-23 10:11 57.44331 40.31237 35321 ft 447 kts 223°
2026-04-23 10:12 57.39760 40.23459 35320 ft 448 kts 223°
2026-04-23 10:12 57.35212 40.15713 35321 ft 448 kts 223°
2026-04-23 10:13 57.30323 40.08662 35326 ft 449 kts 216°
2026-04-23 10:13 57.25204 40.02095 35306 ft 449 kts 215°
2026-04-23 10:14 57.20079 39.95538 35306 ft 449 kts 215°
2026-04-23 10:14 57.14994 39.89018 35321 ft 449 kts 216°
2026-04-23 10:15 57.09897 39.82468 35324 ft 449 kts 216°
2026-04-23 10:15 57.04796 39.75911 35313 ft 450 kts 216°
2026-04-23 10:16 56.99659 39.69307 35319 ft 450 kts 216°
2026-04-23 10:16 56.94556 39.62739 35316 ft 450 kts 216°
2026-04-23 10:17 56.89491 39.56214 35309 ft 450 kts 216°
2026-04-23 10:17 56.84362 39.49601 35309 ft 450 kts 216°
2026-04-23 10:18 56.79231 39.42981 35318 ft 451 kts 216°
2026-04-23 10:18 56.74141 39.36416 35323 ft 451 kts 216°
2026-04-23 10:19 56.69034 39.29821 35316 ft 451 kts 216°
2026-04-23 10:19 56.63925 39.23213 35320 ft 451 kts 216°
2026-04-23 10:20 56.58802 39.16585 35323 ft 451 kts 216°
2026-04-23 10:20 56.53740 39.10034 35316 ft 451 kts 216°
2026-04-23 10:21 56.48660 39.03457 35305 ft 451 kts 216°
2026-04-23 10:21 56.43548 38.96839 35313 ft 452 kts 216°
2026-04-23 10:22 56.38403 38.90398 35303 ft 452 kts 215°
2026-04-23 10:22 56.33277 38.84011 35310 ft 452 kts 216°
2026-04-23 10:23 56.28153 38.77474 35311 ft 452 kts 221°
2026-04-23 10:23 56.23641 38.69728 35341 ft 451 kts 225°
2026-04-23 10:24 56.19132 38.61906 35332 ft 451 kts 225°
2026-04-23 10:24 56.14635 38.54175 35332 ft 452 kts 225°
2026-04-23 10:25 56.10092 38.46383 35329 ft 452 kts 225°
2026-04-23 10:25 56.05561 38.38607 35321 ft 454 kts 225°
2026-04-23 10:26 56.01025 38.30824 35325 ft 454 kts 224°
2026-04-23 10:26 55.96487 38.23018 35331 ft 454 kts 225°
2026-04-23 10:27 55.91964 38.15236 35325 ft 454 kts 225°
2026-04-23 10:27 55.87444 38.07452 35319 ft 454 kts 225°
2026-04-23 10:28 55.82977 37.99750 35328 ft 455 kts 225°
2026-04-23 10:28 55.77883 37.93127 35335 ft 457 kts 204°
2026-04-23 10:29 55.74887 37.91501 35353 ft 459 kts 191°
2026-04-23 10:29 55.71716 37.91055 35345 ft 460 kts 180°
2026-04-23 10:29 55.65328 37.91448 35329 ft 460 kts 178°
2026-04-23 10:30 55.58965 37.91932 35330 ft 459 kts 178°
2026-04-23 10:30 55.52632 37.92410 35329 ft 460 kts 178°
2026-04-23 10:31 55.46259 37.92890 35319 ft 458 kts 178°
2026-04-23 10:31 55.39905 37.93367 35322 ft 458 kts 178°
2026-04-23 10:32 55.33619 37.94912 35334 ft 458 kts 171°
2026-04-23 10:32 55.27316 37.96832 35329 ft 459 kts 171°
2026-04-23 10:33 55.21067 37.98692 35323 ft 458 kts 171°
2026-04-23 10:33 55.14827 38.00529 35315 ft 457 kts 171°
2026-04-23 10:34 55.08563 38.02370 35316 ft 457 kts 171°
2026-04-23 10:34 55.02336 38.04201 35305 ft 457 kts 171°
2026-04-23 10:35 54.96092 38.06031 35302 ft 457 kts 171°
2026-04-23 10:35 54.89826 38.07869 35293 ft 456 kts 171°
2026-04-23 10:36 54.83589 38.09705 35290 ft 456 kts 171°
2026-04-23 10:36 54.77341 38.11542 35296 ft 456 kts 171°
2026-04-23 10:37 54.71124 38.13365 35300 ft 456 kts 171°
2026-04-23 10:37 54.64865 38.15170 35301 ft 456 kts 171°
2026-04-23 10:38 54.58643 38.16957 35302 ft 456 kts 171°
2026-04-23 10:38 54.52405 38.18749 35297 ft 456 kts 171°
2026-04-23 10:39 54.46210 38.20524 35292 ft 455 kts 171°
2026-04-23 10:39 54.39957 38.22310 35296 ft 455 kts 171°
2026-04-23 10:40 54.33744 38.24134 35294 ft 455 kts 168°
2026-04-23 10:40 54.27643 38.26777 35308 ft 454 kts 166°
2026-04-23 10:41 54.21547 38.29448 35309 ft 455 kts 166°
2026-04-23 10:41 54.15453 38.32077 35309 ft 454 kts 167°
2026-04-23 10:42 54.09320 38.34699 35308 ft 454 kts 167°
2026-04-23 10:42 54.03227 38.37304 35308 ft 454 kts 167°
2026-04-23 10:43 53.97125 38.39913 35305 ft 454 kts 167°
2026-04-23 10:43 53.91031 38.42519 35302 ft 453 kts 167°
2026-04-23 10:44 53.84926 38.45130 35307 ft 453 kts 167°
2026-04-23 10:44 53.78846 38.47738 35315 ft 452 kts 167°
2026-04-23 10:45 53.75278 38.49007 35289 ft 451 kts 176°
2026-04-23 10:51 53.70187 38.48830 35370 ft 449 kts 185°
2026-04-23 10:51 53.63952 38.48051 35325 ft 449 kts 186°
2026-04-23 10:52 53.57750 38.47185 35324 ft 449 kts 186°
2026-04-23 10:52 53.51542 38.46298 35334 ft 448 kts 186°
2026-04-23 10:53 53.45375 38.45417 35325 ft 448 kts 186°
2026-04-23 10:53 53.39198 38.44530 35322 ft 448 kts 186°
2026-04-23 10:54 53.32986 38.43647 35326 ft 448 kts 186°
2026-04-23 10:54 53.26803 38.42766 35326 ft 448 kts 186°
2026-04-23 10:55 53.20611 38.41878 35340 ft 448 kts 186°
2026-04-23 10:55 53.14448 38.40996 35346 ft 448 kts 186°
2026-04-23 10:56 53.08236 38.40107 35346 ft 448 kts 186°
2026-04-23 10:56 53.02071 38.39223 35347 ft 447 kts 186°
2026-04-23 10:57 52.95900 38.38340 35345 ft 447 kts 186°
2026-04-23 10:57 52.89722 38.37458 35336 ft 447 kts 186°
2026-04-23 10:58 52.83514 38.36579 35347 ft 446 kts 186°
2026-04-23 10:58 52.77323 38.35694 35355 ft 446 kts 186°
2026-04-23 10:59 52.71180 38.34813 35355 ft 446 kts 186°
2026-04-23 10:59 52.65003 38.33924 35359 ft 447 kts 186°
2026-04-23 11:00 52.58799 38.33041 35376 ft 446 kts 187°
2026-04-23 11:00 52.52650 38.32155 35374 ft 446 kts 186°
2026-04-23 11:01 52.46499 38.31275 35381 ft 446 kts 186°
2026-04-23 11:01 52.40326 38.30398 35378 ft 446 kts 187°
2026-04-23 11:02 52.34181 38.29519 35373 ft 446 kts 187°
2026-04-23 11:02 52.28011 38.28635 35372 ft 445 kts 187°
2026-04-23 11:03 52.21852 38.27756 35366 ft 446 kts 187°
2026-04-23 11:03 52.15760 38.26404 35338 ft 447 kts 200°
2026-04-23 11:04 52.10036 38.22391 35381 ft 450 kts 207°
2026-04-23 11:04 52.04471 38.17983 35384 ft 448 kts 208°
2026-04-23 11:05 51.98973 38.13552 34876 ft 435 kts 208°
2026-04-23 11:05 51.96298 38.11383 34151 ft 433 kts 208°
2026-04-23 11:05 51.93644 38.09228 33594 ft 426 kts 208°
2026-04-23 11:06 51.88451 38.05014 32768 ft 410 kts 208°
2026-04-23 11:06 51.85936 38.02970 32399 ft 402 kts 208°
2026-04-23 11:06 51.83467 38.00963 32048 ft 394 kts 208°
2026-04-23 11:07 51.81039 37.98990 31729 ft 387 kts 208°
2026-04-23 11:07 51.78679 37.97074 31391 ft 380 kts 208°
2026-04-23 11:07 51.76336 37.95184 31038 ft 373 kts 208°
2026-04-23 11:07 51.74061 37.93347 30546 ft 366 kts 208°
2026-04-23 11:08 51.71800 37.91525 29970 ft 361 kts 208°
2026-04-23 11:08 51.69602 37.89754 29380 ft 356 kts 208°
2026-04-23 11:08 51.67408 37.87988 28681 ft 352 kts 208°
2026-04-23 11:08 51.65247 37.86249 28011 ft 349 kts 208°
2026-04-23 11:09 51.63086 37.84510 27369 ft 344 kts 208°
2026-04-23 11:09 51.60986 37.82820 26718 ft 340 kts 208°
2026-04-23 11:09 51.58877 37.81122 26063 ft 337 kts 209°
2026-04-23 11:09 51.56791 37.79448 25389 ft 334 kts 209°
2026-04-23 11:10 51.54755 37.77804 24791 ft 329 kts 209°
2026-04-23 11:10 51.52716 37.76172 24100 ft 327 kts 208°
2026-04-23 11:10 51.50693 37.74566 23426 ft 324 kts 208°
2026-04-23 11:10 51.48697 37.72986 22731 ft 323 kts 208°
2026-04-23 11:11 51.46686 37.71397 22037 ft 321 kts 208°
2026-04-23 11:11 51.44717 37.69844 21389 ft 319 kts 208°
2026-04-23 11:11 51.42730 37.68275 20719 ft 318 kts 208°
2026-04-23 11:11 51.40754 37.66719 20092 ft 316 kts 208°
2026-04-23 11:12 51.38813 37.65187 19399 ft 316 kts 208°
2026-04-23 11:12 51.36839 37.63625 18791 ft 313 kts 209°
2026-04-23 11:12 51.34898 37.62100 18227 ft 310 kts 208°
2026-04-23 11:12 51.32999 37.60613 17665 ft 306 kts 207°
2026-04-23 11:13 51.31096 37.59117 17090 ft 303 kts 208°
2026-04-23 11:13 51.29230 37.57652 16496 ft 301 kts 209°
2026-04-23 11:13 51.27353 37.56182 15939 ft 298 kts 208°
2026-04-23 11:13 51.25499 37.54721 15385 ft 296 kts 209°
2026-04-23 11:14 51.23694 37.53299 14865 ft 293 kts 208°
2026-04-23 11:14 51.21870 37.51859 14303 ft 291 kts 209°
2026-04-23 11:14 51.20077 37.50435 13731 ft 289 kts 210°
2026-04-23 11:14 51.18284 37.49018 13178 ft 287 kts 209°
2026-04-23 11:15 51.16525 37.47628 12659 ft 284 kts 209°
2026-04-23 11:15 51.14756 37.46239 12106 ft 283 kts 209°
2026-04-23 11:15 51.13018 37.44887 11623 ft 279 kts 209°
2026-04-23 11:15 51.11287 37.43538 11183 ft 275 kts 209°
2026-04-23 11:16 51.09620 37.42242 11102 ft 260 kts 210°
2026-04-23 11:16 51.08017 37.40995 10761 ft 256 kts 209°
2026-04-23 11:16 51.06437 37.39762 10415 ft 252 kts 209°
2026-04-23 11:16 51.04866 37.38544 10022 ft 250 kts 209°
2026-04-23 11:17 51.03305 37.37344 9632 ft 249 kts 210°
2026-04-23 11:17 51.01765 37.36166 9236 ft 248 kts 210°
2026-04-23 11:17 51.00218 37.34974 8848 ft 246 kts 210°
2026-04-23 11:17 50.98681 37.33781 8475 ft 246 kts 209°
2026-04-23 11:18 50.97191 37.32632 8134 ft 244 kts 210°
2026-04-23 11:18 50.95682 37.31477 7772 ft 244 kts 210°
2026-04-23 11:18 50.94154 37.30304 7430 ft 242 kts 210°
2026-04-23 11:18 50.92659 37.29144 7052 ft 241 kts 210°
2026-04-23 11:19 50.91189 37.27891 6697 ft 238 kts 218°
2026-04-23 11:19 50.89848 37.26364 6360 ft 236 kts 218°
2026-04-23 11:19 50.88526 37.24872 6006 ft 236 kts 219°
2026-04-23 11:19 50.87238 37.23415 5695 ft 235 kts 218°
2026-04-23 11:20 50.85943 37.21967 5400 ft 233 kts 218°
2026-04-23 11:20 50.84615 37.20486 5070 ft 232 kts 218°
2026-04-23 11:20 50.83292 37.19018 4738 ft 232 kts 218°
2026-04-23 11:20 50.81993 37.17577 4446 ft 230 kts 218°
2026-04-23 11:21 50.80687 37.16131 4138 ft 229 kts 218°
2026-04-23 11:21 50.79383 37.14690 3829 ft 228 kts 218°
2026-04-23 11:21 50.78088 37.13260 3500 ft 228 kts 218°
2026-04-23 11:21 50.76788 37.11825 3203 ft 226 kts 218°
2026-04-23 11:22 50.75523 37.10431 3000 ft 223 kts 218°
2026-04-23 11:22 50.74262 37.09046 2778 ft 219 kts 218°
2026-04-23 11:22 50.73021 37.07683 2559 ft 216 kts 217°
2026-04-23 11:22 50.71807 37.06345 2483 ft 207 kts 218°
2026-04-23 11:23 50.70661 37.05097 2602 ft 208 kts 218°
2026-04-23 11:23 50.69494 37.03827 2495 ft 195 kts 218°
2026-04-23 11:23 50.68389 37.02628 2501 ft 193 kts 219°
2026-04-23 11:23 50.67292 37.01417 2511 ft 194 kts 220°
2026-04-23 11:24 50.66182 37.00198 2514 ft 194 kts 219°
2026-04-23 11:24 50.65065 36.98970 2512 ft 195 kts 219°
2026-04-23 11:24 50.63951 36.97752 2511 ft 193 kts 219°
2026-04-23 11:24 50.62853 36.96541 2516 ft 196 kts 219°
2026-04-23 11:25 50.61869 36.95111 2510 ft 190 kts 231°
2026-04-23 11:25 50.60971 36.93548 2522 ft 190 kts 231°
2026-04-23 11:25 50.60092 36.92003 2512 ft 192 kts 230°
2026-04-23 11:25 50.59207 36.90452 2490 ft 183 kts 230°
2026-04-23 11:26 50.58390 36.89048 2452 ft 167 kts 230°
2026-04-23 11:26 50.57637 36.87746 2541 ft 153 kts 231°
2026-04-23 11:26 50.56903 36.86483 2536 ft 157 kts 231°
2026-04-23 11:26 50.56338 36.85033 2400 ft 161 kts 254°
2026-04-23 11:27 50.56334 36.83303 2309 ft 159 kts 280°
2026-04-23 11:27 50.56791 36.81666 2332 ft 163 kts 291°
2026-04-23 11:27 50.57336 36.80086 2325 ft 166 kts 294°
2026-04-23 11:27 50.57878 36.78542 2294 ft 154 kts 294°
2026-04-23 11:28 50.58371 36.77114 2317 ft 146 kts 292°
2026-04-23 11:28 50.58854 36.75712 2302 ft 146 kts 294°
2026-04-23 11:28 50.59326 36.74312 2286 ft 134 kts 292°
2026-04-23 11:28 50.59750 36.73080 2173 ft 126 kts 291°
2026-04-23 11:29 50.60148 36.71895 1908 ft 121 kts 291°
2026-04-23 11:29 50.60532 36.70721 1679 ft 122 kts 291°
2026-04-23 11:29 50.60913 36.69558 1468 ft 120 kts 292°
2026-04-23 11:29 50.61296 36.68377 1281 ft 123 kts 293°
2026-04-23 11:30 50.61685 36.67200 1285 ft 123 kts 293°
2026-04-23 11:30 50.62078 36.66015 1215 ft 120 kts 292°
2026-04-23 11:30 50.62483 36.64825 1118 ft 120 kts 293°
2026-04-23 11:30 50.62884 36.63611 1031 ft 121 kts 291°
2026-04-23 11:31 50.63274 36.62414 885 ft 124 kts 293°
2026-04-23 11:31 50.63667 36.61232 778 ft 122 kts 293°
2026-04-23 11:31 50.64027 36.60086 713 ft 103 kts 299°
2026-04-23 11:31 50.64260 36.59379 721 ft 49 kts 298°
2026-04-23 11:32 50.64386 36.58999 721 ft 27 kts 294°
2026-04-23 11:32 50.64458 36.58746 723 ft 22 kts 302°
2026-04-23 11:32 50.64523 36.58567 728 ft 16 kts 297°
2026-04-23 11:32 50.64570 36.58425 730 ft 13 kts 298°
2026-04-23 11:33 50.64607 36.58316 732 ft 9 kts 298°
2026-04-23 11:33 50.64635 36.58234 733 ft 8 kts 298°
2026-04-23 11:33 50.64676 36.58109 734 ft 16 kts 297°
2026-04-23 11:33 50.64732 36.57939 733 ft 17 kts 299°
2026-04-23 11:34 50.64788 36.57771 731 ft 17 kts 295°
2026-04-23 11:34 50.64833 36.57614 733 ft 13 kts 270°
2026-04-23 11:34 50.64785 36.57520 735 ft 10 kts 209°
2026-04-23 11:34 50.64730 36.57458 734 ft 9 kts 249°
2026-04-23 11:35 50.64738 36.57375 735 ft 6 kts 277°
2026-04-23 11:35 50.64733 36.57315 734 ft 5 kts 261°
2026-04-23 11:35 50.64723 36.57225 732 ft 12 kts 259°
2026-04-23 11:35 50.64680 36.57130 730 ft 11 kts 179°
2026-04-23 11:36 50.64643 36.57140 729 ft 0 kts 169°